Regional Weather Roundup
Issued by NWS

Home | Current Version | Previous Version | Text Only | Print | Product List | Glossary Off
Versions: 1 2 3 4 5 6 7 8 9 10 11 12 13 14 15 16 17 18 19 20 21 22 23 24 25 26 27 28 29 30 31 32 33 34 35 36 37 38 39 40 41 42 43 44 45 46 47 48 49 50

000
ASUS43 KFSD 192202
RWRSD

WEATHER ROUNDUP FOR SOUTH DAKOTA
NATIONAL WEATHER SERVICE SIOUX FALLS SD
500 PM CDT TUE AUG 19 2014

NOTE: "FAIR" INDICATES FEW OR NO CLOUDS BELOW 12,000 FEET WITH NO
SIGNIFICANT WEATHER AND/OR OBSTRUCTIONS TO VISIBILITY.


SDZ001>005-009-010-012>017-192300-
NORTHWEST AND NORTH CENTRAL SOUTH DAKOTA

CITY           SKY/WX    TMP DP  RH WIND       PRES   REMARKS
BUFFALO          N/A     90  52  27 SE18G24   29.69F
FAITH            N/A     88  54  31 SE10      29.76F
MOBRIDGE       SUNNY     86  62  44 SE9       29.73S
$$

SDZ012>016-024>037-041>051-057-063-072>074-192300-
SOUTHWEST AND SOUTH CENTRAL SOUTH DAKOTA

CITY           SKY/WX    TMP DP  RH WIND       PRES   REMARKS
RAPID CTY ARPT MOSUNNY   83  62  49 SW3       29.77F
PIERRE         SUNNY     90  57  32 SE7       29.72F
CUSTER         CLOUDY    78  51  38 E13       29.93S
ELLSWORTH AFB  MOSUNNY   86  59  40 S8        29.78F
PHILIP         PTSUNNY   93  56  28 SE14G23   29.72F
PINE RIDGE     PTSUNNY   89  57  33 SE8       29.76F
WINNER         FAIR      89  60  37 E13       29.77F
$$

SDZ004>011-016>023-039-040-192300-
NORTHEAST SOUTH DAKOTA

CITY           SKY/WX    TMP DP  RH WIND       PRES   REMARKS
ABERDEEN       SUNNY     82  62  50 E9        29.75F
WATERTOWN      SUNNY     81  61  50 N5        29.79F
SISSETON         N/A     83  65  54 N5        29.75S
$$

SDZ017-020-022-023-036>040-048>070-192300-
SOUTHEAST SOUTH DAKOTA

CITY           SKY/WX    TMP DP  RH WIND       PRES   REMARKS
SIOUX FALLS    MOSUNNY   84  60  44 VRB3      29.80S
HURON          SUNNY     87  59  38 VRB5      29.75F
CHAMBERLAIN    SUNNY     85  63  46 SE6       29.76F
MITCHELL       SUNNY     86  62  44 NE7       29.77F
YANKTON        SUNNY     82  63  51 E7        29.78S
$$

ABBREVIATIONS USED IN REMARKS
   TC - TEMPERATURE IN CELSIUS
  WCI - WIND CHILL INDEX
   HX - HEAT INDEX
  VSB - VISIBILITY




USA.gov is the U.S. government's official web portal to all federal, state and local government web resources and services.